Regional Weather Roundup
Issued by NWS

Home | Current Version | Previous Version | Text Only | Print | Product List | Glossary On
Versions: 1 2 3 4 5 6 7 8 9 10 11 12 13 14 15 16 17 18 19 20 21 22 23 24 25 26 27 28
000
ASUS43 KMPX 100010
RWRMN
WEATHER ROUNDUP FOR MINNESOTA
NATIONAL WEATHER SERVICE TWIN CITIES/CHANHASSEN MN
700 PM CDT SUN MAY 09 2021


NOTE: "FAIR" INDICATES FEW OR NO CLOUDS BELOW 12,000 FEET WITH NO
SIGNIFICANT WEATHER AND/OR OBSTRUCTIONS TO VISIBILITY. N/A MEANS
CURRENT SKY AND/OR WEATHER CONDITIONS ARE NOT AVAILABLE.

MNZ060>063-068>070-100100-
   Twin Cities Metro

CITY           SKY/WX    TMP DP  RH WIND       PRES   REMARKS
TWIN CITIES    MOSUNNY   59  24  26 N12       30.01S
6HR MIN TEMP:  58; 6HR MAX TEMP:  63;

ST PAUL        SUNNY     60  27  28 N6G20     30.01S
CRYSTAL        SUNNY     58  23  26 N12       30.01S
BLAINE         MOSUNNY   59  25  27 N12G17    30.02S
LAKEVILLE      MOSUNNY   59  21  23 N9        30.00S
EDEN PRAIRIE   MOSUNNY   58  26  29 NE8       29.99S
6HR MIN TEMP:  57; 6HR MAX TEMP:  62;

SOUTH ST PAUL  SUNNY     60  25  26 N10G16    30.00S
$$
MNZ001>005-007-008-013>017-022>024-027-028-100100-
   Northwest Minnesota

CITY           SKY/WX    TMP DP  RH WIND       PRES   REMARKS
BEMIDJI        CLOUDY    49  24  38 NE12G17   30.11R
HALLOCK        PTSUNNY   54  21  28 N10G17    30.16S
ROSEAU           N/A     52 N/A N/A E17       30.17S
WARROAD        CLOUDY    46  30  53 NE16      30.19S
THIEF RVR FALL SUNNY     50  22  33 NE17G25   30.15R
CROOKSTON      MOSUNNY   52  23  32 NE14      30.14R
FOSSTON        PTSUNNY   48  21  34 E13       30.12S
DETROIT LAKES  SUNNY     55  21  26 NE10G18   30.06S
MOORHEAD       SUNNY     61   9  12 N14       30.08R
PARK RAPIDS    PTSUNNY   53  22  29 NE12      30.06R
MAHNOMEN       FAIR      53  25  34 NE15      30.09S
$$
MNZ006-009>011-018-025>026-100100-
   North Central Minnesota

CITY           SKY/WX    TMP DP  RH WIND       PRES   REMARKS
BAUDETTE       CLOUDY    46  23  40 NE13G22   30.17R
FLAG ISLAND    CLOUDY    45  21  39 NE15      30.19S
INTL FALLS     CLOUDY    45  21  38 NE12G20   30.16S
6HR MIN TEMP:  44; 6HR MAX TEMP:  50;

WASKISH        PTSUNNY   48  21  34 NE12G17   30.14R
BIG FORK       CLOUDY    46  21  36 NE8       30.18R
LONGVILLE      CLOUDY    50  23  34 NE7       30.08S
GRAND RAPIDS   CLOUDY    47  24  40 NE6       30.12R
CRANE LAKE     CLOUDY    43  18  36 NE7       30.18R
ORR            CLOUDY    45  14  29 N5        30.12R
COOK           CLOUDY    45  19  36 NE5       30.13S
WALKER         CLOUDY    48  25  40 NE8G17    30.09R
$$
MNZ012-019>021-037-100100-
   Northeast Minnesota

CITY           SKY/WX    TMP DP  RH WIND       PRES   REMARKS
DULUTH         CLOUDY    42  25  50 E9        30.12R
6HR MIN TEMP:  42; 6HR MAX TEMP:  48;

ELY            CLOUDY    43  19  39 NE6       30.13S
HIBBING        CLOUDY    44  22  41 E10       30.11R
EVELETH        CLOUDY    44  24  45 NE9       30.13R
DULUTH HARBOR  CLOUDY    41  34  75 NE13      30.15R
TWO HARBORS    CLOUDY    39  25  56 E5        30.13R
SILVER BAY     CLOUDY    39  23  52 CALM      30.13S
GRAND MARAIS     N/A     39  32  76 SW5       30.15S
G MARAIS ARPRT CLOUDY    36  25  64 CALM      30.11R
$$
MNZ029>031-032-039>041-046>048-054>057-064-100100-
   West Central Minnesota

CITY           SKY/WX    TMP DP  RH WIND       PRES   REMARKS
FERGUS FALLS   SUNNY     57  25  28 N10G16    30.01S
WHEATON        MOSUNNY   61  10  13 N10       30.05S
MORRIS         MOSUNNY   59   7  12 N8        30.03F
ALEXANDRIA     MOSUNNY   59  18  20 NE7       30.03
ELBOW LAKE     FAIR      57  23  26 N13       30.03F
WADENA         MOSUNNY   57  28  33 N12       30.04S
GLENWOOD       SUNNY     59  21  23 NW9       30.03S
APPLETON       MOSUNNY   61  12  15 N6        30.02S
BENSON         SUNNY     57  23  26 NE5       30.03S
ORTONVILLE     MOSUNNY   59  21  23 NW8       30.03S
MADISON        MOSUNNY   63  16  16 N8G16     30.04S
WILLMAR        PTSUNNY   61  16  17 N5        30.05S
$$
MNZ033>034-036-042>043-049>051-058-059-100100-
   Central Minnesota

CITY           SKY/WX    TMP DP  RH WIND       PRES   REMARKS
ST CLOUD       SUNNY     57  21  24 NE6       30.02F
6HR MIN TEMP:  56; 6HR MAX TEMP:  60;

SAUK CENTRE    FAIR      58  21  24 NE5       30.03S
PAYNESVILLE    SUNNY     57  23  26 N7        30.03S
AITKIN         PTSUNNY   50  23  34 NE12      30.07R
PINE RIVER     PTSUNNY   54  28  37 N7        30.09S
BRAINERD       PTSUNNY   57  22  25 N12       30.05S
STAPLES        MOSUNNY   55  21  26 NE6       30.05S
LONG PRAIRIE   FAIR      55  23  28 NE9       30.03S
LITTLE FALLS   MOSUNNY   55  12  18 N5        30.04S
CAMP RIPLEY    FAIR      55  22  27 N9        30.05R
LITCHFIELD     SUNNY     57  25  28 E5        30.03S
BUFFALO        PTSUNNY   59  23  24 MISG      30.03S
MAPLE LAKE     SUNNY     59  25  27 N7        30.03S
HUTCHINSON     SUNNY     57  28  31 N8        30.03S
$$
MNZ037-044-045-052-053-100100-
   East Central Minnesota

CITY           SKY/WX    TMP DP  RH WIND       PRES   REMARKS
PRINCETON      MOSUNNY   57  25  28 NE3       30.03F
MORA           MOSUNNY   54  27  35 E5        30.06S
CAMBRIDGE      MOSUNNY   57  34  41 NE6       30.04S
RUSH CITY      MOSUNNY   53  26  34 NE7       30.05S
MOOSE LAKE     CLOUDY    48  28  46 E9        30.08R
CLOQUET        CLOUDY    41  25  52 E7        30.10R
$$
MNZ071>073-080-081-089-090-097-098-100100-
   Southwest Minnesota

CITY           SKY/WX    TMP DP  RH WIND       PRES   REMARKS
MONTEVIDEO     PTSUNNY   61  10  13 N7        30.02S
GRANITE FALLS  MOSUNNY   61  22  22 N7        30.03S
CANBY          PTSUNNY   59  21  23 W8        30.03S
MARSHALL       PTSUNNY   60  19  20 N13       30.02R
REDWOOD FALLS  MOSUNNY   61  19  19 N12G17    30.00S
OLIVIA         MOSUNNY   59  19  21 NE7       30.01S
PIPESTONE      CLOUDY    55  32  41 NW15G21   30.04S
WINDOM         PTSUNNY   59  21  23 NW10      30.00F
WORTHINGTON    CLOUDY    56  32  40 W15       30.03S
JACKSON        CLOUDY    59  21  23 N8        30.02S
TRACY          PTSUNNY   60  12  15 NW13      30.01S
SLAYTON        CLOUDY    57  24  28 W10       30.03S
$$
MNZ065>067-074>077-082>085-091>093-100100-
   South Central Minnesota

CITY           SKY/WX    TMP DP  RH WIND       PRES   REMARKS
MANKATO        MOSUNNY   60  20  21 NW9       30.00S
NEW ULM        MOSUNNY   61  18  18 N13G20    30.00S
ST JAMES       PTSUNNY   61  18  18 NW14      29.99S
FAIRMONT       PTSUNNY   61  21  21 NW12      30.00S
GLENCOE        SUNNY     58  21  23 N10G16    30.01S
FARIBAULT      SUNNY     61  23  23 N7        30.00S
OWATONNA       SUNNY     61  27  27 NW9       29.99S
WASECA         MOSUNNY   61  19  20 N8        30.00S
ALBERT LEA     PTSUNNY   61  25  25 N7        29.98S
$$
MNZ078>079-086>088-094>096-100100-
   Southeast Minnesota

CITY           SKY/WX    TMP DP  RH WIND       PRES   REMARKS
ROCHESTER      MOSUNNY   58  25  28 NW13      29.98S
6HR MIN TEMP:  58; 6HR MAX TEMP:  64;

RED WING       SUNNY     61  21  21 N8        29.98S
STANTON        SUNNY     56  27  32 N7        29.99S
DODGE CENTER   SUNNY     61  18  18 NW10      29.99S
WINONA         MOSUNNY   59  32  36 NW8       29.97S
AUSTIN         MOSUNNY   59  28  31 N8G17     29.98S
PRESTON        MOSUNNY   58  25  28 NW7       29.98S
$$
ABBREVIATIONS USED IN REMARKS
   TC - TEMPERATURES IN CELSIUS
  WCI - WIND CHILL INDEX
   HX - HEAT INDEX
  VSB - VISIBILITY
$$



USA.gov is the U.S. government's official web portal to all federal, state and local government web resources and services.